• In Hungary
  • List of Countries
  • For 7 days
  • Water Temperature
  • Satellite Maps
  • Weather Map
  • News
  • Weather Widgets
  • user-avatar
    Login

    Hourly Weather Yeghegnadzor

    Today, 18 February, Sunday

    Time Temperature Precipitation Wind Pressure Humidity
    00:00 +5°C° 0.1 mm 2 mps 649 mmHg 75%
    01:00 +5°C° 0.5 mm 2 mps 649 mmHg 77%
    02:00 +5°C° 0.5 mm 2 mps 649 mmHg 79%
    03:00 +5°C° 0.5 mm 2 mps 648 mmHg 80%
    04:00 +5°C° 0.6 mm 2 mps 648 mmHg 82%
    05:00 +5°C° 0.6 mm 2 mps 648 mmHg 83%
    06:00 +5°C° 0.6 mm 2 mps 647 mmHg 84%
    07:00 +5°C° 1.2 mm 2 mps 647 mmHg 85%
    08:00 +5°C° 1.2 mm 2 mps 647 mmHg 86%
    09:00 +5°C° 1.2 mm 2 mps 647 mmHg 87%
    10:00 +4°C° 1.2 mm 3 mps 647 mmHg 87%
    11:00 +4°C° 1.2 mm 3 mps 647 mmHg 87%
    12:00 +4°C° 1.2 mm 3 mps 646 mmHg 86%
    13:00 +4°C° 0.9 mm 3 mps 646 mmHg 86%
    14:00 +4°C° 0.9 mm 3 mps 645 mmHg 86%
    15:00 +4°C° 0.9 mm 3 mps 645 mmHg 85%
    16:00 +3°C° 1.6 mm 3 mps 645 mmHg 87%
    17:00 +4°C° 1.6 mm 2 mps 645 mmHg 88%
    18:00 +3°C° 1.6 mm 2 mps 646 mmHg 89%
    19:00 +3°C° 0.5 mm 2 mps 646 mmHg 89%
    20:00 +3°C° 0.5 mm 2 mps 646 mmHg 89%
    21:00 +4°C° 0.5 mm 1 mps 647 mmHg 88%
    22:00 +4°C° 0.5 mm 1 mps 647 mmHg 89%
    23:00 +4°C° 0.5 mm 1 mps 647 mmHg 89%

    Tomorrow, 19 February, Monday

    Time Temperature Precipitation Wind Pressure Humidity
    00:00 +3°C° 0.5 mm 1 mps 647 mmHg 89%
    01:00 +3°C° 0.4 mm 1 mps 647 mmHg 89%
    02:00 +3°C° 0.4 mm 1 mps 648 mmHg 90%
    03:00 +3°C° 0.4 mm 1 mps 648 mmHg 90%
    04:00 +3°C° 0.2 mm 1 mps 648 mmHg 90%
    05:00 +2°C° 0.2 mm 1 mps 648 mmHg 90%
    06:00 +2°C° 0.2 mm 1 mps 648 mmHg 90%
    07:00 +3°C° 0.2 mm 1 mps 648 mmHg 88%
    08:00 +3°C° 0.2 mm 1 mps 649 mmHg 87%
    09:00 +4°C° 0.2 mm 1 mps 649 mmHg 85%
    10:00 +4°C° 0.1 mm 1 mps 649 mmHg 85%
    11:00 +5°C° 0.1 mm 1 mps 649 mmHg 84%
    12:00 +5°C° 0.1 mm 1 mps 649 mmHg 84%
    13:00 +5°C° 0.1 mm 1 mps 649 mmHg 83%
    14:00 +6°C° 0.1 mm 1 mps 649 mmHg 81%
    15:00 +6°C° 0.1 mm 1 mps 649 mmHg 80%
    16:00 +5°C° 0.1 mm 1 mps 649 mmHg 81%
    17:00 +4°C° 0.1 mm 1 mps 649 mmHg 81%
    18:00 +3°C° 0.1 mm 1 mps 649 mmHg 82%
    19:00 +3°C° 0 mm 1 mps 649 mmHg 82%
    20:00 +2°C° 0 mm 1 mps 649 mmHg 81%
    21:00 +1°C° 0 mm 1 mps 649 mmHg 81%
    22:00 +1°C° 0 mm 1 mps 649 mmHg 81%
    23:00 +1°C° 0 mm 1 mps 650 mmHg 80%

    Day after tomorrow, 20 February, Tuesday

    Time Temperature Precipitation Wind Pressure Humidity
    00:00 0°C° 0 mm 1 mps 650 mmHg 80%
    01:00 0°C° 0 mm 1 mps 650 mmHg 79%
    02:00 0°C° 0 mm 1 mps 650 mmHg 78%
    03:00 0°C° 0 mm 1 mps 650 mmHg 77%
    04:00 0°C° 0 mm 1 mps 650 mmHg 77%
    05:00 0°C° 0 mm 1 mps 650 mmHg 77%
    06:00 0°C° 0 mm 1 mps 650 mmHg 77%
    07:00 +1°C° 0 mm 1 mps 650 mmHg 76%
    08:00 +2°C° 0 mm 2 mps 651 mmHg 76%
    09:00 +3°C° 0 mm 2 mps 651 mmHg 75%
    10:00 +4°C° 0 mm 2 mps 651 mmHg 76%
    11:00 +5°C° 0 mm 2 mps 651 mmHg 76%
    12:00 +6°C° 0 mm 2 mps 651 mmHg 76%
    13:00 +6°C° 0 mm 2 mps 650 mmHg 74%
    14:00 +6°C° 0 mm 2 mps 650 mmHg 72%
    15:00 +6°C° 0 mm 2 mps 650 mmHg 70%
    16:00 +6°C° 0 mm 1 mps 649 mmHg 70%
    17:00 +5°C° 0 mm 1 mps 649 mmHg 69%
    18:00 +4°C° 0 mm 1 mps 649 mmHg 68%
    19:00 +3°C° 0 mm 1 mps 649 mmHg 65%
    20:00 +3°C° 0 mm 1 mps 649 mmHg 61%
    21:00 +2°C° 0 mm 2 mps 650 mmHg 58%
    22:00 +2°C° 0 mm 2 mps 650 mmHg 58%
    23:00 +1°C° 0 mm 2 mps 650 mmHg 59%

    21 February, Wednesday

    Time Temperature Precipitation Wind Pressure Humidity
    00:00 +1°C° 0 mm 2 mps 650 mmHg 59%
    01:00 +1°C° 0 mm 2 mps 650 mmHg 62%
    02:00 +1°C° 0 mm 2 mps 650 mmHg 65%
    03:00 +2°C° 0 mm 1 mps 650 mmHg 68%
    04:00 +2°C° 0.1 mm 1 mps 650 mmHg 70%
    05:00 +2°C° 0.1 mm 1 mps 650 mmHg 73%
    06:00 +2°C° 0.1 mm 1 mps 650 mmHg 75%
    07:00 +3°C° 0 mm 1 mps 650 mmHg 74%
    08:00 +4°C° 0 mm 1 mps 651 mmHg 73%
    09:00 +5°C° 0 mm 1 mps 651 mmHg 73%
    10:00 +5°C° 0 mm 1 mps 651 mmHg 73%
    11:00 +6°C° 0 mm 1 mps 651 mmHg 73%
    12:00 +7°C° 0 mm 1 mps 651 mmHg 73%
    13:00 +7°C° 0.1 mm 1 mps 650 mmHg 72%
    14:00 +7°C° 0.1 mm 1 mps 650 mmHg 71%
    15:00 +7°C° 0.1 mm 1 mps 650 mmHg 70%
    16:00 +6°C° 0.1 mm 1 mps 650 mmHg 71%
    17:00 +6°C° 0.1 mm 1 mps 650 mmHg 73%
    18:00 +5°C° 0.1 mm 1 mps 650 mmHg 74%
    19:00 +4°C° 0 mm 1 mps 650 mmHg 73%
    20:00 +4°C° 0 mm 1 mps 651 mmHg 72%
    21:00 +4°C° 0 mm 1 mps 651 mmHg 72%
    22:00 +3°C° 0 mm 1 mps 651 mmHg 71%
    23:00 +3°C° 0 mm 1 mps 651 mmHg 70%

    22 February, Thursday

    Time Temperature Precipitation Wind Pressure Humidity
    00:00 +3°C° 0 mm 1 mps 651 mmHg 70%
    01:00 +2°C° 0 mm 1 mps 651 mmHg 71%
    02:00 +2°C° 0 mm 1 mps 650 mmHg 72%
    03:00 +2°C° 0 mm 1 mps 650 mmHg 72%
    04:00 +1°C° 0 mm 1 mps 650 mmHg 74%
    05:00 +1°C° 0 mm 1 mps 650 mmHg 75%
    06:00 +1°C° 0 mm 1 mps 650 mmHg 77%
    07:00 +2°C° 0 mm 1 mps 651 mmHg 75%
    08:00 +4°C° 0 mm 1 mps 651 mmHg 74%
    09:00 +5°C° 0 mm 1 mps 652 mmHg 73%
    10:00 +6°C° 0 mm 1 mps 651 mmHg 72%
    11:00 +6°C° 0 mm 1 mps 651 mmHg 72%
    12:00 +6°C° 0 mm 2 mps 651 mmHg 71%
    13:00 +6°C° 0 mm 2 mps 650 mmHg 69%
    14:00 +7°C° 0 mm 2 mps 650 mmHg 68%
    15:00 +7°C° 0 mm 2 mps 649 mmHg 66%
    16:00 +6°C° 0 mm 2 mps 649 mmHg 67%
    17:00 +4°C° 0 mm 2 mps 649 mmHg 69%
    18:00 +4°C° 0 mm 1 mps 649 mmHg 70%
    19:00 +4°C° 0 mm 1 mps 649 mmHg 69%
    20:00 +2°C° 0 mm 2 mps 649 mmHg 69%
    21:00 +2°C° 0 mm 2 mps 649 mmHg 68%
    22:00 +2°C° 0 mm 2 mps 649 mmHg 69%
    23:00 +2°C° 0 mm 2 mps 649 mmHg 69%

    23 February, Friday

    Time Temperature Precipitation Wind Pressure Humidity
    00:00 +1°C° 0 mm 2 mps 649 mmHg 70%
    01:00 +1°C° 0 mm 2 mps 649 mmHg 71%
    02:00 +2°C° 0 mm 1 mps 649 mmHg 72%
    03:00 +2°C° 0 mm 1 mps 649 mmHg 72%
    04:00 +2°C° 0 mm 1 mps 648 mmHg 72%
    05:00 +2°C° 0 mm 1 mps 648 mmHg 72%
    06:00 +1°C° 0 mm 1 mps 648 mmHg 72%
    07:00 +3°C° 0 mm 1 mps 649 mmHg 70%
    08:00 +4°C° 0 mm 1 mps 649 mmHg 68%
    09:00 +6°C° 0 mm 1 mps 650 mmHg 66%
    10:00 +6°C° 0 mm 1 mps 650 mmHg 65%
    11:00 +7°C° 0 mm 1 mps 650 mmHg 64%
    12:00 +8°C° 0 mm 1 mps 649 mmHg 63%
    13:00 +8°C° 0 mm 1 mps 649 mmHg 62%
    14:00 +8°C° 0 mm 1 mps 649 mmHg 61%
    15:00 +9°C° 0 mm 1 mps 649 mmHg 60%
    16:00 +7°C° 0 mm 1 mps 649 mmHg 63%
    17:00 +6°C° 0 mm 1 mps 649 mmHg 66%
    18:00 +5°C° 0 mm 1 mps 648 mmHg 69%
    19:00 +5°C° 0 mm 1 mps 649 mmHg 71%
    20:00 +3°C° 0 mm 2 mps 649 mmHg 72%
    21:00 +3°C° 0 mm 2 mps 649 mmHg 73%
    22:00 +3°C° 0 mm 2 mps 649 mmHg 73%
    23:00 +2°C° 0 mm 2 mps 649 mmHg 72%
    Show more